Weather in Zatishje

Ukraine / Odesa District     47°20′06″N   29°52′15″E
temp.,
°C
wind,
m/s
gust,
m/s
humid.,
%
clouds,
%
prec.,
mm/h
press.,
hPa
HPBL,
m
19 january, tue
tue1923:00−13nw36750 0.0 1023410
02:00−13nw36780 0.0 1023389
05:00−14wnw37783 0.0 1023380
08:00−13wnw378115 0.0 1023361
11:00−10wnw356412 0.0 1024516
14:00−8wnw355414 0.0 1022621
17:00−9wnw22690 0.0 102221
20:00−10s12710 0.0 102221
20 january, wed
wed2023:00−10sse23810 0.0 102228
02:00−10se238722 0.0 102246
05:00−10se338882 0.0 102273
08:00−10se369049 0.0 1022135
11:00−5sse477630 0.0 1022346
14:00−2sse467416 0.0 1021433
17:00−3se338635 0.0 102158
20:00−5se238934 0.0 102237
21 january, thu
thu2123:00−5se33900 0.0 102242
02:00−5sse339038 0.0 102242
05:00−4se239150 0.0 102131
08:00−4sse349034 0.0 102256
11:000s46830 0.0 1021253
14:00+2s47810 0.0 1020300
17:000s46890 0.0 102094
20:00−1s47910 0.0 1020125
22 january, fri
fri2223:00−1s47910 0.0 1020133
02:00−1s49887 0.0 1019170
05:00−1s478667 0.0 1018125
08:00−1s478636 0.0 1018135
11:00+3s5106929 0.0 1016309
14:00+5sse5106656 0.0 1014354
17:00+2s51282100 0.0 1013260
20:00+1s5128464 0.0 1013246
23 january, sat
sat2323:00+1s5108741 0.0 1011198
02:00+1s5128670 0.0 1011242
05:00+2ssw4128398 0.0 1010219
08:00+2ssw5108499 0.0 1010196
11:00+5ssw5976100 0.0 1010348
14:00+7s5975100 0.0 1009420
17:00+4sse488990 0.0 1009123
20:00+5sse5129691 0.0 1008262